Weather History for Twin Falls, ID

Change the Weather History Date:

Friday, December 14, 2012

  Actual Average Record
Temperature  
Mean Temperature 34 °F -  
Max Temperature 37 °F 37 °F 57 °F (2006)
Min Temperature 31 °F 19 °F -4 °F (1985)
Degree Days  
Heating Degree Days 31 37  
Month to date heating degree days 351 501  
Since 1 July heating degree days 1405 1939  
Cooling Degree Days 0 0  
Month to date cooling degree days 0 0  
Year to date cooling degree days 970 680  
Moisture  
Dew Point 28 °F    
Average Humidity 81    
Maximum Humidity 92    
Minimum Humidity 70    
Precipitation  
Precipitation T in 0.04 in 0.35 in (2006)
Month to date precipitation 1.46 0.56  
Year to date precipitation 9.80 9.99  
Sea Level Pressure  
Sea Level Pressure 29.72 in    
Wind  
Wind Speed 6 mph (SW)    
Max Wind Speed 14 mph    
Max Gust Speed 17 mph    
Visibility 5 miles    
Events Fog , Snow    
T = Trace of Precipitation, MM = Missing Value Source: NWS Daily Summary

Daily Weather History Graph

Daily Weather History Graph

Search for Another Location

Airport:

Trip Planner

Search our weather history database for the weather conditions in past years. The results will help you decide how hot, cold, wet, or windy it might be!

Date:

Astronomy

Dec. 14, 2012 Rise Set
Actual Time 8:00 AM MST 5:05 PM MST
Civil Twilight 7:28 AM MST 5:37 PM MST
Nautical Twilight 6:52 AM MST 6:13 PM MST
Astronomical Twilight 6:18 AM MST 6:47 PM MST
Moon 9:07 AM MST (12/14) 7:04 PM MST (12/14)
Length of Visible Light 10h 09m
Length of Day
9h 05m
Waxing Crescent, 3% of the Moon is Illuminated
Dec 14
Waxing Crescent
Dec 19
First Quarter
Dec 28
Full
Jan 4
Last Quarter
Jan 11
New

Hourly Weather History & Observations

Time (MST) Temp. Windchill Dew Point Humidity Pressure Visibility Wind Dir Wind Speed Gust Speed Precip Events Conditions
12:14 AM 32.0 °F 28.7 °F 28.4 °F 87% 29.79 in 2.5 mi WNW 3.5 mph - N/A   Overcast
12:22 AM 32.0 °F 28.7 °F 28.4 °F 87% 29.79 in 4.0 mi West 3.5 mph - N/A   Overcast
12:53 AM 32.0 °F - 28.9 °F 88% 29.76 in 4.0 mi Calm Calm - N/A   Overcast
1:11 AM 32.0 °F - 28.4 °F 87% 29.77 in 2.0 mi Calm Calm - N/A   Overcast
1:23 AM 32.0 °F - 28.4 °F 87% 29.77 in 1.8 mi Calm Calm - N/A   Overcast
1:53 AM 32.0 °F - 28.9 °F 88% 29.75 in 1.0 mi Calm Calm - N/A   Overcast
2:31 AM 32.0 °F - 28.4 °F 87% 29.75 in 0.8 mi Calm Calm - N/A   Mist
2:53 AM 32.0 °F - 28.9 °F 88% 29.73 in 0.8 mi Calm Calm - N/A   Mist
3:03 AM 32.0 °F - 28.4 °F 87% 29.74 in 1.8 mi Calm Calm - N/A   Overcast
3:10 AM 32.0 °F - 28.4 °F 87% 29.74 in 3.0 mi Calm Calm - N/A   Overcast
3:33 AM 32.0 °F 28.7 °F 28.4 °F 87% 29.73 in 1.8 mi East 3.5 mph - N/A   Overcast
3:43 AM 32.0 °F 28.7 °F 28.4 °F 87% 29.73 in 0.5 mi ENE 3.5 mph - N/A Fog Fog
3:53 AM 32.0 °F - 30.0 °F 92% 29.72 in 1.0 mi Calm Calm - N/A   Overcast
4:27 AM 32.0 °F - 28.4 °F 87% 29.71 in 6.0 mi Calm Calm - N/A   Overcast
4:53 AM 32.0 °F - 28.9 °F 88% 29.70 in 4.0 mi Calm Calm - N/A   Overcast
5:02 AM 32.0 °F - 28.4 °F 87% 29.70 in 3.0 mi Calm Calm - 0.00 in Snow Light Snow
5:22 AM 32.0 °F 28.7 °F 28.4 °F 87% 29.69 in 2.0 mi East 3.5 mph - 0.00 in   Overcast
5:38 AM 32.0 °F 28.7 °F 28.4 °F 87% 29.69 in 1.8 mi ESE 3.5 mph - 0.00 in   Overcast
5:48 AM 32.0 °F - 28.4 °F 87% 29.68 in 2.0 mi Calm Calm - 0.00 in   Overcast
5:53 AM 32.0 °F 28.7 °F 28.9 °F 88% 29.68 in 2.0 mi ENE 3.5 mph - 0.00 in   Overcast
6:09 AM 32.0 °F - 28.4 °F 87% 29.69 in 1.2 mi Calm Calm - N/A   Overcast
6:17 AM 32.0 °F - 30.2 °F 93% 29.68 in 0.5 mi Calm Calm - N/A Fog Fog
6:33 AM 32.0 °F - 28.4 °F 87% 29.68 in 1.8 mi Calm Calm - N/A   Overcast
6:41 AM 32.0 °F - 28.4 °F 87% 29.69 in 2.0 mi Calm Calm - N/A   Overcast
6:53 AM 32.0 °F - 28.9 °F 88% 29.70 in 2.5 mi Calm Calm - N/A   Overcast
7:37 AM 32.0 °F - 28.4 °F 87% 29.69 in 3.0 mi Calm Calm - N/A   Overcast
7:41 AM 32.0 °F - 28.4 °F 87% 29.69 in 2.5 mi Calm Calm - N/A   Overcast
7:53 AM 33.1 °F - 28.9 °F 85% 29.69 in 2.5 mi Calm Calm - N/A   Overcast
8:06 AM 33.8 °F 30.8 °F 28.4 °F 81% 29.69 in 3.0 mi SW 3.5 mph - N/A   Overcast
8:19 AM 33.8 °F - 30.2 °F 87% 29.69 in 2.5 mi Calm Calm - N/A   Overcast
8:28 AM 33.8 °F 30.8 °F 30.2 °F 87% 29.69 in 2.5 mi West 3.5 mph - N/A   Overcast
8:53 AM 33.1 °F 30.0 °F 30.0 °F 89% 29.70 in 1.5 mi WSW 3.5 mph - N/A   Overcast
9:09 AM 33.8 °F 30.8 °F 30.2 °F 87% 29.70 in 2.0 mi SW 3.5 mph - N/A   Overcast
9:22 AM 33.8 °F 29.6 °F 30.2 °F 87% 29.70 in 3.0 mi WSW 4.6 mph - N/A   Overcast
9:41 AM 33.8 °F 29.6 °F 30.2 °F 87% 29.71 in 4.0 mi West 4.6 mph - N/A   Overcast
9:53 AM 33.1 °F 26.9 °F 28.9 °F 85% 29.71 in 5.0 mi WSW 6.9 mph - N/A   Overcast
10:53 AM 34.0 °F 28.0 °F 30.0 °F 85% 29.70 in 10.0 mi WSW 6.9 mph - 0.00 in   Overcast
11:53 AM 34.0 °F 26.0 °F 28.9 °F 82% 29.70 in 10.0 mi WSW 10.4 mph - N/A   Overcast
12:36 PM 33.8 °F 25.3 °F 28.4 °F 81% 29.69 in 9.0 mi WSW 11.5 mph - 0.00 in   Overcast
12:53 PM 34.0 °F 25.5 °F 28.9 °F 82% 29.69 in 10.0 mi WSW 11.5 mph - 0.00 in   Overcast
1:53 PM 34.0 °F 25.5 °F 28.9 °F 82% 29.68 in 10.0 mi WSW 11.5 mph - N/A   Overcast
2:45 PM 35.6 °F 29.9 °F 28.4 °F 75% 29.67 in 10.0 mi SW 6.9 mph - N/A   Overcast
2:53 PM 36.0 °F 29.6 °F 28.9 °F 76% 29.68 in 10.0 mi West 8.1 mph - N/A   Overcast
3:49 PM 37.4 °F 30.8 °F 28.4 °F 70% 29.69 in 10.0 mi WSW 9.2 mph - N/A   Overcast
3:53 PM 37.0 °F 30.4 °F 28.0 °F 70% 29.69 in 10.0 mi WSW 9.2 mph - N/A   Overcast
4:53 PM 36.0 °F 28.5 °F 28.0 °F 73% 29.72 in 10.0 mi WSW 10.4 mph - N/A   Overcast
5:53 PM 35.1 °F 27.9 °F 27.0 °F 72% 29.74 in 10.0 mi SW 9.2 mph - N/A   Overcast
6:53 PM 35.1 °F 27.9 °F 27.0 °F 72% 29.77 in 10.0 mi SSW 9.2 mph - N/A   Overcast
7:53 PM 34.0 °F 26.6 °F 26.1 °F 73% 29.78 in 10.0 mi SW 9.2 mph - N/A   Overcast
8:53 PM 33.1 °F 25.5 °F 26.1 °F 75% 29.80 in 10.0 mi SSW 9.2 mph - N/A   Overcast
9:53 PM 34.0 °F 26.6 °F 26.1 °F 73% 29.81 in 10.0 mi South 9.2 mph - N/A   Overcast
10:53 PM 32.0 °F 24.8 °F 25.0 °F 75% 29.81 in 10.0 mi South 8.1 mph - N/A   Scattered Clouds
11:53 PM 32.0 °F 24.2 °F 24.1 °F 73% 29.83 in 10.0 mi SSW 9.2 mph - N/A   Mostly Cloudy